START_TIME,STEP,MOV.,M29,t_acc.,H22,t_acc.,H26,t_acc.,H30,t_acc.
1979-07-29 06:00:31.030 ,1,1,0.,24.0,0.,24.0,0.,24.0,0.,24.0
1979-07-29 06:00:55.030 ,2,1,0.,24.0,0.,24.0,0.,24.0,0.,24.0
1979-07-29 06:01:19.030 ,6,1,0.,24.0,0.,24.0,0.,24.0,0.,24.0
1979-07-29 06:01:43.030 ,5,1,0.,24.0,0.,24.0,0.,24.0,0.,24.0
1979-07-29 06:02:07.030 ,1,1,0.,24.0,0.,24.0,0.,24.0,0.,24.0
1979-07-29 06:02:31.030 ,2,1,0.,24.0,0.,24.0,0.,24.0,0.,24.0
1979-07-29 06:02:55.030 ,6,1,0.,24.0,0.,24.0,0.,24.0,0.,24.0
1979-07-29 06:03:19.030 ,5,1,0.,24.0,0.,24.0,0.,24.0,0.,24.0
1979-07-29 06:03:43.030 ,1,1,0.,24.0,0.,24.0,0.,24.0,0.,24.0
1979-07-29 06:04:07.030 ,2,1,0.,24.0,0.,24.0,0.,24.0,0.,24.0
1979-07-29 06:04:31.030 ,6,1,0.,24.0,0.,24.0,0.,24.0,0.,24.0
1979-07-29 06:04:55.030 ,5,1,0.,24.0,0.,24.0,0.,24.0,0.,24.0
1979-07-29 06:05:19.030 ,1,1,0.,24.0,0.,24.0,0.,24.0,0.,24.0
1979-07-29 06:05:43.030 ,0,0,0.,24.0,0.,24.0,0.,24.0,0.,24.0
1979-07-29 06:06:07.030 ,0,0,0.,24.0,0.,24.0,0.,24.0,0.,24.0
1979-07-29 06:06:31.030 ,5,1,0.,24.0,0.,24.0,0.,24.0,0.,24.0
1979-07-29 06:06:55.030 ,5,0,0.,24.0,0.,24.0,0.,24.0,0.,24.0
1979-07-29 06:07:19.030 ,4,1,1.,24.0,0.,24.0,0.,24.0,0.,24.0
1979-07-29 06:07:43.030 ,4,0,0.,24.0,0.,24.0,0.,24.0,0.,24.0
1979-07-29 06:08:07.030 ,3,1,0.,24.0,0.,24.0,0.,24.0,0.,24.0
1979-07-29 06:08:31.030 ,3,0,0.,24.0,0.,24.0,0.,24.0,0.,24.0
1979-07-29 06:08:55.030 ,2,1,0.,24.0,0.,24.0,0.,24.0,0.,24.0
1979-07-29 06:09:19.030 ,2,0,0.,24.0,0.,24.0,0.,24.0,0.,24.0
1979-07-29 06:09:43.030 ,1,1,0.,24.0,0.,24.0,0.,24.0,0.,24.0
1979-07-29 06:10:07.030 ,1,0,0.,24.0,0.,24.0,0.,24.0,0.,24.0
1979-07-29 06:10:31.030 ,0,1,0.,24.0,0.,24.0,0.,24.0,0.,24.0
1979-07-29 06:10:55.030 ,0,0,0.,24.0,0.,24.0,0.,24.0,0.,24.0
1979-07-29 06:11:19.030 ,0,1,0.,24.0,0.,24.0,0.,24.0,0.,24.0
1979-07-29 06:11:43.030 ,0,0,0.,24.0,0.,24.0,0.,24.0,0.,24.0
1979-07-29 06:12:07.030 ,1,1,0.,24.0,0.,24.0,0.,24.0,0.,24.0
1979-07-29 06:12:31.030 ,1,0,0.,24.0,0.,24.0,0.,24.0,0.,24.0
1979-07-29 06:12:55.030 ,2,1,0.,24.0,0.,24.0,0.,24.0,0.,24.0
1979-07-29 06:13:19.030 ,2,0,0.,24.0,0.,24.0,0.,24.0,0.,24.0
1979-07-29 06:13:43.030 ,3,1,0.,24.0,0.,24.0,0.,24.0,0.,24.0
1979-07-29 06:14:07.030 ,3,0,0.,24.0,0.,24.0,0.,24.0,0.,24.0
1979-07-29 06:14:31.030 ,4,1,0.,24.0,0.,24.0,0.,24.0,0.,24.0
1979-07-29 06:14:55.030 ,4,0,0.,24.0,0.,24.0,0.,24.0,0.,24.0
1979-07-29 06:15:19.030 ,5,1,0.,24.0,0.,24.0,0.,24.0,0.,24.0
1979-07-29 06:15:43.030 ,5,0,0.,24.0,0.,24.0,0.,24.0,0.,24.0
1979-07-29 06:16:07.030 ,6,1,0.,24.0,0.,24.0,0.,24.0,0.,24.0
1979-07-29 06:16:31.030 ,6,0,0.,24.0,0.,24.0,0.,24.0,0.,24.0
1979-07-29 06:16:55.030 ,7,1,0.,24.0,0.,24.0,0.,24.0,0.,24.0
1979-07-29 06:17:19.030 ,7,0,0.,24.0,0.,24.0,0.,24.0,0.,24.0
1979-07-29 06:17:43.030 ,7,1,0.,24.0,0.,24.0,0.,24.0,0.,24.0
1979-07-29 06:18:07.030 ,7,0,0.,24.0,0.,24.0,0.,24.0,0.,24.0
1979-07-29 06:18:31.030 ,6,1,0.,24.0,0.,24.0,0.,24.0,0.,24.0
1979-07-29 06:18:55.030 ,6,0,0.,24.0,0.,24.0,0.,24.0,0.,24.0
1979-07-29 06:19:19.030 ,5,1,0.,24.0,0.,24.0,0.,24.0,0.,24.0
1979-07-29 06:19:43.030 ,5,0,0.,24.0,0.,24.0,0.,24.0,0.,24.0
1979-07-29 06:20:07.030 ,4,1,0.,24.0,0.,24.0,0.,24.0,0.,24.0
1979-07-29 06:20:31.030 ,4,0,0.,24.0,0.,24.0,0.,24.0,0.,24.0
1979-07-29 06:20:55.030 ,3,1,0.,24.0,0.,24.0,0.,24.0,0.,24.0
1979-07-29 06:21:19.030 ,3,0,0.,24.0,0.,24.0,0.,24.0,0.,24.0
1979-07-29 06:21:43.030 ,2,1,0.,24.0,0.,24.0,0.,24.0,0.,24.0
1979-07-29 06:22:07.030 ,2,0,0.,24.0,0.,24.0,0.,24.0,0.,24.0
1979-07-29 06:22:31.030 ,1,1,0.,24.0,0.,24.0,0.,24.0,0.,24.0
1979-07-29 06:22:55.030 ,1,0,0.,24.0,0.,24.0,0.,24.0,0.,24.0
1979-07-29 06:23:19.030 ,0,1,0.,24.0,0.,24.0,0.,24.0,0.,24.0
1979-07-29 06:23:43.030 ,0,0,0.,24.0,0.,24.0,0.,24.0,0.,24.0
1979-07-29 06:24:07.030 ,0,1,0.,24.0,0.,24.0,0.,24.0,0.,24.0
1979-07-29 06:24:31.030 ,0,0,0.,24.0,0.,24.0,0.,24.0,0.,24.0
1979-07-29 06:24:55.030 ,1,1,0.,24.0,0.,24.0,0.,24.0,0.,24.0
1979-07-29 06:25:19.030 ,1,0,0.,24.0,0.,24.0,0.,24.0,0.,24.0
1979-07-29 06:25:43.030 ,2,1,0.,24.0,0.,24.0,0.,24.0,0.,24.0
1979-07-29 06:26:07.030 ,2,0,0.,24.0,0.,24.0,0.,24.0,0.,24.0
1979-07-29 06:26:31.030 ,3,1,0.,24.0,0.,24.0,0.,24.0,0.,24.0
1979-07-29 06:26:55.030 ,3,0,0.,24.0,0.,24.0,0.,24.0,0.,24.0
1979-07-29 06:27:19.030 ,4,1,0.,24.0,0.,24.0,0.,24.0,0.,24.0
1979-07-29 06:27:43.030 ,4,0,0.,24.0,0.,24.0,0.,24.0,0.,24.0
1979-07-29 06:28:07.030 ,5,1,0.,24.0,0.,24.0,0.,24.0,0.,24.0
1979-07-29 06:28:31.030 ,5,0,0.,24.0,0.,24.0,0.,24.0,0.,24.0
1979-07-29 06:28:55.030 ,6,1,0.,24.0,0.,24.0,0.,24.0,0.,24.0
1979-07-29 06:29:19.030 ,6,0,0.,24.0,0.,24.0,0.,24.0,0.,24.0
1979-07-29 06:29:43.030 ,7,1,0.,24.0,0.,24.0,0.,24.0,0.,24.0
1979-07-29 06:30:07.030 ,7,0,0.,24.0,0.,24.0,0.,24.0,0.,24.0
1979-07-29 06:30:31.030 ,7,1,0.,24.0,0.,24.0,0.,24.0,0.,24.0
1979-07-29 06:30:55.030 ,7,0,0.,24.0,0.,24.0,0.,24.0,0.,24.0
1979-07-29 06:31:19.030 ,6,1,0.,24.0,0.,24.0,0.,24.0,0.,24.0
1979-07-29 06:31:43.030 ,6,0,0.,24.0,0.,24.0,0.,24.0,0.,24.0
1979-07-29 06:32:07.030 ,5,1,0.,24.0,0.,24.0,0.,24.0,0.,24.0
1979-07-29 06:32:31.030 ,5,0,0.,24.0,0.,24.0,0.,24.0,0.,24.0
1979-07-29 06:32:55.030 ,4,1,0.,24.0,0.,24.0,0.,24.0,0.,24.0
1979-07-29 06:33:19.030 ,4,0,0.,24.0,0.,24.0,0.,24.0,0.,24.0
1979-07-29 06:33:43.030 ,3,1,0.,24.0,0.,24.0,0.,24.0,0.,24.0
1979-07-29 06:34:07.030 ,3,0,0.,24.0,0.,24.0,0.,24.0,0.,24.0
1979-07-29 06:34:31.030 ,2,1,0.,24.0,0.,24.0,0.,24.0,0.,24.0
1979-07-29 06:34:55.030 ,2,0,0.,24.0,0.,24.0,0.,24.0,0.,24.0
1979-07-29 06:35:19.030 ,1,1,0.,24.0,0.,24.0,0.,24.0,0.,24.0
1979-07-29 06:35:43.030 ,1,0,0.,24.0,0.,24.0,0.,24.0,0.,24.0
1979-07-29 06:36:07.030 ,0,1,0.,24.0,0.,24.0,0.,24.0,0.,24.0
1979-07-29 06:36:31.030 ,0,0,0.,24.0,0.,24.0,0.,24.0,0.,24.0
1979-07-29 06:36:55.030 ,0,1,0.,24.0,0.,24.0,0.,24.0,0.,24.0
1979-07-29 06:37:19.030 ,0,0,0.,24.0,0.,24.0,0.,24.0,0.,24.0
1979-07-29 06:37:43.030 ,1,1,0.,24.0,0.,24.0,0.,24.0,0.,24.0
1979-07-29 06:38:07.030 ,1,0,0.,24.0,0.,24.0,0.,24.0,0.,24.0
1979-07-29 06:38:31.030 ,2,1,0.,24.0,0.,24.0,0.,24.0,0.,24.0
1979-07-29 06:38:55.030 ,2,0,0.,24.0,0.,24.0,0.,24.0,0.,24.0
1979-07-29 06:39:19.030 ,0,0,,0,,0,,0,,0
1979-07-29 06:39:43.030 ,0,0,,0,,0,,0,,0
1979-07-29 06:39:43.030 ,3,0,0.,24.0,0.,24.0,0.,24.0,0.,24.0
1979-07-29 06:40:07.030 ,4,1,0.,24.0,0.,24.0,0.,24.0,0.,24.0
1979-07-29 06:40:31.030 ,4,0,0.,24.0,0.,24.0,0.,24.0,0.,24.0
1979-07-29 06:40:55.030 ,5,1,0.,24.0,0.,24.0,0.,24.0,0.,24.0
1979-07-29 06:41:19.030 ,5,0,0.,24.0,0.,24.0,0.,24.0,0.,24.0
1979-07-29 06:41:43.030 ,6,1,0.,24.0,0.,24.0,0.,24.0,0.,24.0
1979-07-29 06:42:07.030 ,6,0,0.,24.0,0.,24.0,0.,24.0,0.,24.0
1979-07-29 06:42:31.030 ,7,0,0.,24.0,0.,24.0,0.,24.0,0.,24.0
1979-07-29 06:42:55.030 ,7,0,0.,24.0,0.,24.0,0.,24.0,0.,24.0
1979-07-29 06:43:19.030 ,5,1,0.,24.0,0.,24.0,0.,24.0,0.,24.0
1979-07-29 06:43:43.030 ,1,1,0.,24.0,0.,24.0,0.,24.0,0.,24.0
1979-07-29 06:44:55.030 ,0,0,0.,24.0,0.,24.0,0.,24.0,0.,24.0
1979-07-29 06:45:19.030 ,1,1,0.,24.0,0.,24.0,0.,24.0,0.,24.0
1979-07-29 06:45:43.030 ,2,1,0.,24.0,0.,24.0,0.,24.0,0.,24.0
1979-07-29 06:46:07.030 ,6,1,0.,24.0,0.,24.0,0.,24.0,0.,24.0
1979-07-29 06:46:31.030 ,5,1,0.,24.0,0.,24.0,0.,24.0,0.,24.0
1979-07-29 06:46:55.030 ,1,1,0.,24.0,0.,24.0,0.,24.0,0.,24.0
1979-07-29 06:47:19.030 ,2,1,0.,24.0,0.,24.0,0.,24.0,0.,24.0
1979-07-29 06:47:43.030 ,6,1,0.,24.0,0.,24.0,0.,24.0,0.,24.0
1979-07-29 06:48:07.030 ,5,1,0.,24.0,0.,24.0,0.,24.0,0.,24.0
1979-07-29 06:48:31.030 ,1,1,1.,24.0,0.,24.0,0.,24.0,0.,24.0
1979-07-29 06:48:55.030 ,2,1,0.,24.0,0.,24.0,0.,24.0,0.,24.0
1979-07-29 06:49:19.030 ,6,1,0.,24.0,0.,24.0,0.,24.0,0.,24.0
1979-07-29 06:49:43.030 ,5,1,0.,24.0,0.,24.0,0.,24.0,0.,24.0
1979-07-29 06:50:07.030 ,1,1,0.,24.0,0.,24.0,0.,24.0,0.,24.0
1979-07-29 06:50:31.030 ,2,1,0.,24.0,0.,24.0,0.,24.0,0.,24.0
1979-07-29 06:50:55.030 ,6,1,0.,24.0,0.,24.0,0.,24.0,0.,24.0
1979-07-29 06:51:19.030 ,5,1,0.,24.0,0.,24.0,0.,24.0,0.,24.0
1979-07-29 06:51:43.030 ,1,1,0.,24.0,0.,24.0,0.,24.0,0.,24.0
1979-07-29 06:52:07.030 ,2,1,0.,24.0,0.,24.0,0.,24.0,0.,24.0
1979-07-29 06:52:31.030 ,6,1,0.,24.0,0.,24.0,0.,24.0,0.,24.0
1979-07-29 06:52:55.030 ,5,1,0.,24.0,0.,24.0,0.,24.0,0.,24.0
1979-07-29 06:53:19.030 ,1,1,0.,24.0,0.,24.0,0.,24.0,0.,24.0
1979-07-29 06:53:43.030 ,0,0,0.,24.0,0.,24.0,0.,24.0,0.,24.0
1979-07-29 06:54:07.030 ,0,0,0.,24.0,0.,24.0,0.,24.0,0.,24.0
1979-07-29 06:54:31.030 ,5,1,0.,24.0,0.,24.0,0.,24.0,0.,24.0
1979-07-29 06:54:55.030 ,5,0,0.,24.0,0.,24.0,0.,24.0,0.,24.0
1979-07-29 06:55:19.030 ,4,1,0.,24.0,0.,24.0,0.,24.0,0.,24.0
1979-07-29 06:55:43.030 ,4,0,1.,24.0,0.,24.0,0.,24.0,0.,24.0
1979-07-29 06:56:07.030 ,3,1,0.,24.0,0.,24.0,0.,24.0,0.,24.0
1979-07-29 06:56:31.030 ,3,0,0.,24.0,0.,24.0,0.,24.0,0.,24.0
1979-07-29 06:58:31.030 ,0,0,0.,24.0,0.,24.0,0.,24.0,0.,24.0
1979-07-29 06:58:55.030 ,0,0,0.,24.0,0.,24.0,0.,24.0,0.,24.0
1979-07-29 06:59:19.030 ,0,1,0.,24.0,0.,24.0,0.,24.0,0.,24.0
1979-07-29 06:59:43.030 ,0,0,0.,24.0,0.,24.0,0.,24.0,0.,24.0
1979-07-29 07:00:07.030 ,1,1,0.,24.0,0.,24.0,0.,24.0,0.,24.0
1979-07-29 07:00:31.030 ,1,0,0.,24.0,0.,24.0,0.,24.0,0.,24.0
1979-07-29 07:00:55.030 ,2,1,0.,24.0,0.,24.0,0.,24.0,0.,24.0
1979-07-29 07:01:19.030 ,2,0,0.,24.0,0.,24.0,0.,24.0,0.,24.0
1979-07-29 07:01:43.030 ,3,1,0.,24.0,0.,24.0,0.,24.0,0.,24.0
1979-07-29 07:02:07.030 ,3,0,0.,24.0,0.,24.0,0.,24.0,0.,24.0
1979-07-29 07:02:31.030 ,4,1,0.,24.0,0.,24.0,0.,24.0,0.,24.0
1979-07-29 07:02:55.030 ,4,0,0.,24.0,0.,24.0,0.,24.0,0.,24.0
1979-07-29 07:03:19.030 ,5,1,0.,24.0,0.,24.0,0.,24.0,0.,24.0
1979-07-29 07:03:43.030 ,5,0,0.,24.0,0.,24.0,0.,24.0,0.,24.0
1979-07-29 07:04:07.030 ,6,1,1.,24.0,0.,24.0,0.,24.0,0.,24.0
1979-07-29 07:04:31.030 ,6,0,0.,24.0,0.,24.0,0.,24.0,0.,24.0
1979-07-29 07:04:55.030 ,7,1,0.,24.0,0.,24.0,0.,24.0,0.,24.0
1979-07-29 07:05:19.030 ,7,0,0.,24.0,0.,24.0,0.,24.0,0.,24.0
1979-07-29 07:05:43.030 ,7,1,0.,24.0,0.,24.0,0.,24.0,0.,24.0
1979-07-29 07:06:07.030 ,7,0,0.,24.0,0.,24.0,0.,24.0,0.,24.0
1979-07-29 07:06:31.030 ,6,1,0.,24.0,0.,24.0,0.,24.0,0.,24.0
1979-07-29 07:06:55.030 ,6,0,0.,24.0,0.,24.0,0.,24.0,0.,24.0
1979-07-29 07:07:19.030 ,5,1,0.,24.0,0.,24.0,0.,24.0,0.,24.0
1979-07-29 07:07:43.030 ,5,0,0.,24.0,0.,24.0,0.,24.0,0.,24.0
1979-07-29 07:08:07.030 ,4,1,0.,24.0,0.,24.0,0.,24.0,0.,24.0
1979-07-29 07:08:31.030 ,4,0,0.,24.0,0.,24.0,0.,24.0,0.,24.0
1979-07-29 07:08:55.030 ,3,1,0.,24.0,0.,24.0,0.,24.0,0.,24.0
1979-07-29 07:09:19.030 ,3,0,0.,24.0,0.,24.0,0.,24.0,0.,24.0
1979-07-29 07:09:43.030 ,2,1,0.,24.0,0.,24.0,0.,24.0,0.,24.0
1979-07-29 07:10:07.030 ,2,0,0.,24.0,0.,24.0,0.,24.0,0.,24.0
1979-07-29 07:10:31.030 ,1,1,0.,24.0,0.,24.0,0.,24.0,0.,24.0
1979-07-29 07:10:55.030 ,1,0,0.,24.0,0.,24.0,0.,24.0,0.,24.0
1979-07-29 07:11:19.030 ,0,1,0.,24.0,0.,24.0,0.,24.0,0.,24.0
1979-07-29 07:11:43.030 ,0,0,0.,24.0,0.,24.0,0.,24.0,0.,24.0
1979-07-29 07:12:07.030 ,0,1,0.,24.0,0.,24.0,0.,24.0,0.,24.0
1979-07-29 07:12:31.030 ,0,0,0.,24.0,0.,24.0,0.,24.0,0.,24.0
1979-07-29 07:12:55.030 ,1,1,0.,24.0,0.,24.0,0.,24.0,0.,24.0
1979-07-29 07:13:19.030 ,1,0,0.,24.0,0.,24.0,0.,24.0,0.,24.0
1979-07-29 07:13:43.030 ,2,1,0.,24.0,0.,24.0,0.,24.0,0.,24.0
1979-07-29 07:14:07.030 ,2,0,0.,24.0,0.,24.0,0.,24.0,0.,24.0
1979-07-29 07:14:31.030 ,3,1,0.,24.0,0.,24.0,0.,24.0,0.,24.0
1979-07-29 07:14:55.030 ,3,0,0.,24.0,0.,24.0,0.,24.0,0.,24.0
1979-07-29 07:15:19.030 ,4,1,0.,24.0,0.,24.0,0.,24.0,0.,24.0
1979-07-29 07:15:43.030 ,4,0,0.,24.0,0.,24.0,0.,24.0,0.,24.0
1979-07-29 07:16:07.030 ,5,1,0.,24.0,0.,24.0,0.,24.0,0.,24.0
1979-07-29 07:16:31.030 ,5,0,0.,24.0,0.,24.0,0.,24.0,0.,24.0
1979-07-29 07:16:55.030 ,6,1,0.,24.0,0.,24.0,0.,24.0,0.,24.0
1979-07-29 07:17:19.030 ,6,0,0.,24.0,0.,24.0,0.,24.0,0.,24.0
1979-07-29 07:17:43.030 ,7,1,0.,24.0,0.,24.0,0.,24.0,0.,24.0
1979-07-29 07:18:07.030 ,7,0,0.,24.0,0.,24.0,0.,24.0,0.,24.0
1979-07-29 07:18:31.030 ,7,1,0.,24.0,0.,24.0,0.,24.0,0.,24.0
1979-07-29 07:18:55.030 ,7,0,0.,24.0,0.,24.0,0.,24.0,0.,24.0
1979-07-29 07:19:19.030 ,6,1,1.,24.0,0.,24.0,0.,24.0,0.,24.0
1979-07-29 07:19:43.030 ,6,0,0.,24.0,0.,24.0,0.,24.0,0.,24.0
1979-07-29 07:20:07.030 ,5,1,0.,24.0,0.,24.0,0.,24.0,0.,24.0
1979-07-29 07:20:31.030 ,5,0,0.,24.0,0.,24.0,0.,24.0,0.,24.0
1979-07-29 07:20:55.030 ,4,1,0.,24.0,0.,24.0,0.,24.0,0.,24.0
1979-07-29 07:21:19.030 ,4,0,0.,24.0,0.,24.0,0.,24.0,0.,24.0
1979-07-29 07:21:43.030 ,3,1,0.,24.0,0.,24.0,0.,24.0,0.,24.0
1979-07-29 07:22:07.030 ,3,0,0.,24.0,0.,24.0,0.,24.0,0.,24.0
1979-07-29 07:22:31.030 ,2,1,0.,24.0,0.,24.0,0.,24.0,0.,24.0
1979-07-29 07:22:55.030 ,2,0,0.,24.0,0.,24.0,0.,24.0,0.,24.0
1979-07-29 07:23:19.030 ,1,1,0.,24.0,0.,24.0,0.,24.0,0.,24.0
1979-07-29 07:23:43.030 ,1,0,0.,24.0,0.,24.0,0.,24.0,0.,24.0
1979-07-29 07:24:07.030 ,0,1,0.,24.0,0.,24.0,0.,24.0,0.,24.0
1979-07-29 07:24:31.030 ,0,0,0.,24.0,0.,24.0,0.,24.0,0.,24.0
1979-07-29 07:24:55.030 ,0,1,0.,24.0,0.,24.0,0.,24.0,0.,24.0
1979-07-29 07:25:19.030 ,0,0,0.,24.0,0.,24.0,0.,24.0,0.,24.0
1979-07-29 07:25:43.030 ,1,1,0.,24.0,0.,24.0,0.,24.0,0.,24.0
1979-07-29 07:26:07.030 ,1,0,0.,24.0,0.,24.0,0.,24.0,0.,24.0
1979-07-29 07:26:31.030 ,2,1,0.,24.0,0.,24.0,0.,24.0,0.,24.0
1979-07-29 07:26:55.030 ,2,0,0.,24.0,0.,24.0,0.,24.0,0.,24.0
1979-07-29 07:27:19.030 ,3,1,0.,24.0,0.,24.0,0.,24.0,0.,24.0
1979-07-29 07:27:43.030 ,3,0,0.,24.0,0.,24.0,0.,24.0,0.,24.0
1979-07-29 07:28:07.030 ,4,1,0.,24.0,0.,24.0,0.,24.0,0.,24.0
1979-07-29 07:28:31.030 ,4,0,0.,24.0,0.,24.0,0.,24.0,0.,24.0
1979-07-29 07:28:55.030 ,5,1,0.,24.0,0.,24.0,0.,24.0,0.,24.0
1979-07-29 07:29:19.030 ,5,0,0.,24.0,0.,24.0,0.,24.0,0.,24.0
1979-07-29 07:29:43.030 ,6,1,0.,24.0,0.,24.0,0.,24.0,0.,24.0
1979-07-29 07:30:07.030 ,6,0,0.,24.0,0.,24.0,0.,24.0,0.,24.0
1979-07-29 07:30:31.030 ,7,0,0.,24.0,0.,24.0,0.,24.0,0.,24.0
1979-07-29 07:30:55.030 ,7,0,0.,24.0,0.,24.0,0.,24.0,0.,24.0
1979-07-29 07:31:19.030 ,5,1,0.,24.0,0.,24.0,0.,24.0,0.,24.0
1979-07-29 07:31:43.030 ,1,1,0.,24.0,0.,24.0,0.,24.0,0.,24.0
1979-07-29 07:32:07.030 ,2,1,0.,24.0,0.,24.0,0.,24.0,0.,24.0
1979-07-29 07:32:31.030 ,6,1,0.,24.0,0.,24.0,0.,24.0,0.,24.0
1979-07-29 07:32:55.030 ,5,1,0.,24.0,0.,24.0,0.,24.0,0.,24.0
1979-07-29 07:33:19.030 ,1,1,0.,24.0,0.,24.0,0.,24.0,0.,24.0
1979-07-29 07:33:43.030 ,2,1,0.,24.0,0.,24.0,0.,24.0,0.,24.0
1979-07-29 07:34:07.030 ,6,1,0.,24.0,0.,24.0,0.,24.0,0.,24.0
1979-07-29 07:34:31.020 ,5,1,0.,24.0,0.,24.0,0.,24.0,0.,24.0
1979-07-29 07:34:55.020 ,1,1,0.,24.0,0.,24.0,0.,24.0,0.,24.0
1979-07-29 07:35:19.020 ,2,1,0.,24.0,0.,24.0,0.,24.0,0.,24.0
1979-07-29 07:35:43.020 ,6,1,0.,24.0,0.,24.0,0.,24.0,0.,24.0
1979-07-29 07:36:07.020 ,5,1,0.,24.0,0.,24.0,0.,24.0,0.,24.0
1979-07-29 07:36:31.020 ,1,1,0.,24.0,0.,24.0,0.,24.0,0.,24.0
1979-07-29 07:36:55.020 ,2,1,0.,24.0,0.,24.0,0.,24.0,0.,24.0
1979-07-29 07:37:19.020 ,6,1,0.,24.0,0.,24.0,0.,24.0,0.,24.0
1979-07-29 07:37:43.020 ,5,1,0.,24.0,0.,24.0,0.,24.0,0.,24.0
1979-07-29 07:38:07.020 ,1,1,0.,24.0,0.,24.0,0.,24.0,0.,24.0
1979-07-29 07:38:31.020 ,2,1,0.,24.0,0.,24.0,0.,24.0,0.,24.0
1979-07-29 07:38:55.020 ,6,1,0.,24.0,0.,24.0,0.,24.0,0.,24.0
1979-07-29 07:39:19.020 ,5,1,0.,24.0,0.,24.0,0.,24.0,0.,24.0
1979-07-29 07:39:43.020 ,1,1,0.,24.0,0.,24.0,0.,24.0,0.,24.0
1979-07-29 07:40:07.020 ,2,1,0.,24.0,0.,24.0,0.,24.0,0.,24.0
1979-07-29 07:40:31.020 ,6,1,0.,24.0,0.,24.0,0.,24.0,0.,24.0
1979-07-29 07:40:55.020 ,5,1,0.,24.0,0.,24.0,0.,24.0,0.,24.0
1979-07-29 07:41:19.020 ,1,1,0.,24.0,0.,24.0,0.,24.0,0.,24.0
1979-07-29 07:41:43.020 ,0,0,0.,24.0,0.,24.0,0.,24.0,0.,24.0
1979-07-29 07:42:07.020 ,0,0,0.,24.0,0.,24.0,0.,24.0,0.,24.0
1979-07-29 07:42:31.020 ,5,1,0.,24.0,0.,24.0,0.,24.0,0.,24.0
1979-07-29 07:42:55.020 ,5,0,0.,24.0,0.,24.0,0.,24.0,0.,24.0
1979-07-29 07:43:19.020 ,4,1,0.,24.0,0.,24.0,0.,24.0,0.,24.0
1979-07-29 07:43:43.020 ,4,0,0.,24.0,0.,24.0,0.,24.0,0.,24.0
1979-07-29 07:44:07.020 ,3,1,0.,24.0,0.,24.0,0.,24.0,0.,24.0
1979-07-29 07:44:31.020 ,3,0,0.,24.0,0.,24.0,0.,24.0,0.,24.0
1979-07-29 07:44:55.020 ,2,1,0.,24.0,0.,24.0,0.,24.0,0.,24.0
1979-07-29 07:45:19.020 ,2,0,0.,24.0,0.,24.0,0.,24.0,0.,24.0
1979-07-29 07:45:43.020 ,1,1,0.,24.0,0.,24.0,0.,24.0,0.,24.0
1979-07-29 07:46:07.020 ,1,0,0.,24.0,0.,24.0,0.,24.0,0.,24.0
1979-07-29 07:46:31.020 ,0,1,0.,24.0,0.,24.0,0.,24.0,0.,24.0
1979-07-29 07:46:55.020 ,0,0,0.,24.0,0.,24.0,0.,24.0,0.,24.0
1979-07-29 07:47:19.020 ,0,1,0.,24.0,0.,24.0,0.,24.0,0.,24.0
1979-07-29 07:47:43.020 ,0,0,0.,24.0,0.,24.0,0.,24.0,0.,24.0
1979-07-29 07:48:07.020 ,1,1,0.,24.0,0.,24.0,0.,24.0,0.,24.0
1979-07-29 07:48:31.020 ,1,0,0.,24.0,0.,24.0,0.,24.0,0.,24.0
1979-07-29 07:48:55.020 ,2,1,0.,24.0,0.,24.0,0.,24.0,0.,24.0
1979-07-29 07:49:19.020 ,2,0,0.,24.0,0.,24.0,0.,24.0,0.,24.0
1979-07-29 07:49:43.020 ,3,1,0.,24.0,0.,24.0,0.,24.0,0.,24.0
1979-07-29 07:50:07.020 ,3,0,0.,24.0,0.,24.0,0.,24.0,0.,24.0
1979-07-29 07:50:31.020 ,4,1,0.,24.0,0.,24.0,0.,24.0,0.,24.0
1979-07-29 07:50:55.020 ,4,0,0.,24.0,0.,24.0,0.,24.0,0.,24.0
1979-07-29 07:51:19.020 ,5,1,0.,24.0,0.,24.0,0.,24.0,0.,24.0
1979-07-29 07:51:43.020 ,5,0,0.,24.0,0.,24.0,0.,24.0,0.,24.0
1979-07-29 07:52:07.020 ,6,1,0.,24.0,0.,24.0,0.,24.0,0.,24.0
1979-07-29 07:52:31.020 ,6,0,0.,24.0,0.,24.0,0.,24.0,0.,24.0
1979-07-29 07:52:55.020 ,7,1,0.,24.0,0.,24.0,0.,24.0,0.,24.0
1979-07-29 07:53:19.020 ,7,0,0.,24.0,0.,24.0,0.,24.0,0.,24.0
1979-07-29 07:53:43.020 ,7,1,0.,24.0,0.,24.0,0.,24.0,0.,24.0
1979-07-29 07:54:07.020 ,7,0,0.,24.0,0.,24.0,0.,24.0,0.,24.0
1979-07-29 07:54:31.020 ,6,1,0.,24.0,0.,24.0,0.,24.0,0.,24.0
1979-07-29 07:54:55.020 ,6,0,0.,24.0,0.,24.0,0.,24.0,0.,24.0
1979-07-29 07:55:19.020 ,5,1,0.,24.0,0.,24.0,0.,24.0,0.,24.0
1979-07-29 07:55:43.020 ,5,0,0.,24.0,0.,24.0,0.,24.0,0.,24.0
1979-07-29 07:56:07.020 ,4,1,0.,24.0,0.,24.0,0.,24.0,0.,24.0
1979-07-29 07:56:31.020 ,4,0,0.,24.0,0.,24.0,0.,24.0,0.,24.0
1979-07-29 07:56:55.020 ,3,1,0.,24.0,0.,24.0,0.,24.0,0.,24.0
1979-07-29 07:57:19.020 ,3,0,0.,24.0,0.,24.0,0.,24.0,0.,24.0
1979-07-29 07:57:43.020 ,2,1,0.,24.0,0.,24.0,0.,24.0,0.,24.0
1979-07-29 07:58:07.020 ,2,0,0.,24.0,0.,24.0,0.,24.0,0.,24.0
1979-07-29 07:58:31.020 ,1,1,0.,24.0,0.,24.0,0.,24.0,0.,24.0
1979-07-29 07:58:55.020 ,1,0,0.,24.0,0.,24.0,0.,24.0,0.,24.0
1979-07-29 07:59:19.020 ,0,1,0.,24.0,0.,24.0,0.,24.0,0.,24.0
1979-07-29 07:59:43.020 ,0,0,0.,24.0,0.,24.0,0.,24.0,0.,24.0
1979-07-29 08:00:07.020 ,0,1,0.,24.0,0.,24.0,0.,24.0,0.,24.0
1979-07-29 08:00:31.020 ,0,0,0.,24.0,0.,24.0,0.,24.0,0.,24.0
1979-07-29 08:00:55.020 ,1,1,0.,24.0,0.,24.0,0.,24.0,0.,24.0
1979-07-29 08:01:19.020 ,1,0,0.,24.0,0.,24.0,0.,24.0,0.,24.0
1979-07-29 08:01:43.020 ,2,1,0.,24.0,0.,24.0,0.,24.0,0.,24.0
1979-07-29 08:02:07.020 ,2,0,0.,24.0,0.,24.0,0.,24.0,0.,24.0
1979-07-29 08:02:31.020 ,3,1,0.,24.0,0.,24.0,0.,24.0,0.,24.0
1979-07-29 08:02:55.020 ,3,0,0.,24.0,0.,24.0,0.,24.0,0.,24.0
1979-07-29 08:03:19.020 ,4,1,0.,24.0,0.,24.0,0.,24.0,0.,24.0
1979-07-29 08:03:43.020 ,4,0,0.,24.0,0.,24.0,0.,24.0,0.,24.0
1979-07-29 08:04:07.020 ,5,1,0.,24.0,0.,24.0,0.,24.0,0.,24.0
1979-07-29 08:04:31.020 ,5,0,0.,24.0,0.,24.0,0.,24.0,0.,24.0
1979-07-29 08:04:55.020 ,6,1,1.,24.0,0.,24.0,0.,24.0,0.,24.0
1979-07-29 08:05:19.020 ,6,0,0.,24.0,0.,24.0,0.,24.0,0.,24.0
1979-07-29 08:05:43.020 ,7,1,0.,24.0,0.,24.0,0.,24.0,0.,24.0
1979-07-29 08:06:07.020 ,7,0,0.,24.0,0.,24.0,0.,24.0,0.,24.0
1979-07-29 08:06:31.020 ,7,1,0.,24.0,0.,24.0,0.,24.0,0.,24.0
1979-07-29 08:06:55.020 ,7,0,0.,24.0,0.,24.0,0.,24.0,0.,24.0
1979-07-29 08:08:07.020 ,0,0,0.,24.0,0.,24.0,0.,24.0,0.,24.0
1979-07-29 08:08:31.020 ,0,0,0.,24.0,0.,24.0,0.,24.0,0.,24.0
1979-07-29 08:08:55.020 ,4,1,0.,24.0,0.,24.0,0.,24.0,0.,24.0
1979-07-29 08:09:19.020 ,4,0,0.,24.0,0.,24.0,0.,24.0,0.,24.0
1979-07-29 08:09:43.020 ,3,1,0.,24.0,0.,24.0,0.,24.0,0.,24.0
1979-07-29 08:10:07.020 ,3,0,0.,24.0,0.,24.0,0.,24.0,0.,24.0
1979-07-29 08:10:31.020 ,2,1,0.,24.0,0.,24.0,0.,24.0,0.,24.0
1979-07-29 08:10:55.020 ,2,0,0.,24.0,0.,24.0,0.,24.0,0.,24.0
1979-07-29 08:11:19.020 ,1,1,0.,24.0,0.,24.0,0.,24.0,0.,24.0
1979-07-29 08:11:43.020 ,1,0,0.,24.0,0.,24.0,0.,24.0,0.,24.0
1979-07-29 08:12:07.020 ,0,1,0.,24.0,0.,24.0,0.,24.0,0.,24.0
1979-07-29 08:12:31.020 ,0,0,0.,24.0,0.,24.0,0.,24.0,0.,24.0
1979-07-29 08:12:55.020 ,0,1,0.,24.0,0.,24.0,0.,24.0,0.,24.0
1979-07-29 08:13:19.020 ,0,0,0.,24.0,0.,24.0,0.,24.0,0.,24.0
1979-07-29 08:13:43.020 ,1,1,0.,24.0,0.,24.0,0.,24.0,0.,24.0
1979-07-29 08:14:07.020 ,1,0,0.,24.0,0.,24.0,0.,24.0,0.,24.0
1979-07-29 08:14:31.020 ,2,1,0.,24.0,0.,24.0,0.,24.0,0.,24.0
1979-07-29 08:14:55.020 ,2,0,0.,24.0,0.,24.0,0.,24.0,0.,24.0
1979-07-29 08:15:19.020 ,3,1,0.,24.0,0.,24.0,0.,24.0,0.,24.0
1979-07-29 08:15:43.020 ,3,0,0.,24.0,0.,24.0,0.,24.0,0.,24.0
1979-07-29 08:16:07.020 ,4,1,0.,24.0,0.,24.0,0.,24.0,0.,24.0
1979-07-29 08:16:31.020 ,4,0,0.,24.0,0.,24.0,0.,24.0,0.,24.0
1979-07-29 08:16:55.020 ,5,1,0.,24.0,0.,24.0,0.,24.0,0.,24.0
1979-07-29 08:17:19.020 ,5,0,0.,24.0,0.,24.0,0.,24.0,0.,24.0
1979-07-29 08:17:43.020 ,6,1,0.,24.0,0.,24.0,0.,24.0,0.,24.0
1979-07-29 08:18:07.020 ,6,0,0.,24.0,0.,24.0,0.,24.0,0.,24.0
1979-07-29 08:18:31.020 ,7,0,0.,24.0,0.,24.0,0.,24.0,0.,24.0
1979-07-29 08:18:55.020 ,7,0,0.,24.0,0.,24.0,0.,24.0,0.,24.0
1979-07-29 08:19:19.020 ,5,1,0.,24.0,0.,24.0,0.,24.0,0.,24.0
1979-07-29 08:19:43.020 ,1,1,0.,24.0,0.,24.0,0.,24.0,0.,24.0
1979-07-29 08:20:07.020 ,2,1,0.,24.0,0.,24.0,0.,24.0,0.,24.0
1979-07-29 08:20:31.020 ,6,1,1.,24.0,0.,24.0,0.,24.0,0.,24.0
1979-07-29 08:20:55.020 ,5,1,0.,24.0,0.,24.0,0.,24.0,0.,24.0
1979-07-29 08:21:19.020 ,1,1,0.,24.0,0.,24.0,0.,24.0,0.,24.0
1979-07-29 08:21:43.020 ,2,1,0.,24.0,0.,24.0,0.,24.0,0.,24.0
1979-07-29 08:22:07.020 ,6,1,0.,24.0,0.,24.0,0.,24.0,0.,24.0
1979-07-29 08:22:31.020 ,5,1,0.,24.0,0.,24.0,0.,24.0,0.,24.0
1979-07-29 08:22:55.020 ,1,1,0.,24.0,0.,24.0,0.,24.0,0.,24.0
1979-07-29 08:23:19.020 ,2,1,0.,24.0,0.,24.0,0.,24.0,0.,24.0
1979-07-29 08:23:43.020 ,6,1,0.,24.0,0.,24.0,0.,24.0,0.,24.0
1979-07-29 08:24:07.020 ,5,1,0.,24.0,0.,24.0,0.,24.0,0.,24.0
1979-07-29 08:24:31.020 ,1,1,0.,24.0,0.,24.0,0.,24.0,0.,24.0
1979-07-29 08:24:55.020 ,2,1,0.,24.0,0.,24.0,0.,24.0,0.,24.0
1979-07-29 08:25:19.020 ,6,1,0.,24.0,0.,24.0,0.,24.0,0.,24.0
1979-07-29 08:25:43.020 ,5,1,0.,24.0,0.,24.0,0.,24.0,0.,24.0
1979-07-29 08:26:07.020 ,1,1,0.,24.0,0.,24.0,0.,24.0,0.,24.0
1979-07-29 08:26:31.020 ,2,1,0.,24.0,0.,24.0,0.,24.0,0.,24.0
1979-07-29 08:26:55.020 ,6,1,0.,24.0,0.,24.0,0.,24.0,0.,24.0
1979-07-29 08:27:19.020 ,5,1,0.,24.0,0.,24.0,0.,24.0,0.,24.0
1979-07-29 08:27:43.020 ,1,1,0.,24.0,0.,24.0,0.,24.0,0.,24.0
1979-07-29 08:28:07.020 ,2,1,0.,24.0,0.,24.0,0.,24.0,0.,24.0
1979-07-29 08:28:31.020 ,6,1,0.,24.0,0.,24.0,0.,24.0,0.,24.0
1979-07-29 08:28:55.020 ,5,1,0.,24.0,0.,24.0,0.,24.0,0.,24.0
1979-07-29 08:29:19.020 ,1,1,0.,24.0,0.,24.0,0.,24.0,0.,24.0
1979-07-29 08:30:31.020 ,0,0,1.,24.0,0.,24.0,0.,24.0,0.,24.0
1979-07-29 08:30:55.020 ,0,0,0.,24.0,0.,24.0,0.,24.0,0.,24.0
1979-07-29 08:31:19.020 ,4,1,0.,24.0,0.,24.0,0.,24.0,0.,24.0
1979-07-29 08:31:43.020 ,4,0,0.,24.0,0.,24.0,0.,24.0,0.,24.0
1979-07-29 08:32:07.020 ,3,1,0.,24.0,0.,24.0,0.,24.0,0.,24.0
1979-07-29 08:32:31.020 ,3,0,0.,24.0,0.,24.0,0.,24.0,0.,24.0
1979-07-29 08:32:55.020 ,2,1,0.,24.0,0.,24.0,0.,24.0,0.,24.0
1979-07-29 08:33:19.020 ,2,0,0.,24.0,0.,24.0,0.,24.0,0.,24.0
1979-07-29 08:33:43.020 ,1,1,0.,24.0,0.,24.0,0.,24.0,0.,24.0
1979-07-29 08:34:07.020 ,1,0,0.,24.0,0.,24.0,0.,24.0,0.,24.0
1979-07-29 08:34:31.020 ,0,1,0.,24.0,0.,24.0,0.,24.0,0.,24.0
1979-07-29 08:34:55.020 ,0,0,0.,24.0,0.,24.0,0.,24.0,0.,24.0
1979-07-29 08:35:19.020 ,0,1,0.,24.0,0.,24.0,0.,24.0,0.,24.0
1979-07-29 08:35:43.020 ,0,0,0.,24.0,0.,24.0,0.,24.0,0.,24.0
1979-07-29 08:36:07.020 ,1,1,0.,24.0,0.,24.0,0.,24.0,0.,24.0
1979-07-29 08:36:31.020 ,1,0,0.,24.0,0.,24.0,0.,24.0,0.,24.0
1979-07-29 08:36:55.020 ,2,1,0.,24.0,0.,24.0,0.,24.0,0.,24.0
1979-07-29 08:37:19.020 ,2,0,0.,24.0,0.,24.0,0.,24.0,0.,24.0
1979-07-29 08:37:43.020 ,3,1,0.,24.0,0.,24.0,0.,24.0,0.,24.0
1979-07-29 08:38:07.020 ,3,0,0.,24.0,0.,24.0,0.,24.0,0.,24.0